Tracking 25701 objects as of 4-Jul-2022
HD Live streaming from Space Station
objects crossing your sky now

FENGYUN 1C DEB

Track FENGYUN 1C DEB now!
10-day predictions


NORAD ID: 32353
Int'l Code: 1999-025CYW
Perigee: 826.3 km
Apogee: 1,041.2 km
Inclination: 98.9 °
Period: 103.6 minutes
Semi major axis: 7304 km
RCS: 0.0065 m2 (small)
Launch date: May 10, 1999
Source: People's Republic of China (PRC)
Launch site: Taiyaun Space Center, China (TSC)

Note: This is SATELLITE DEBRIS
aabbcc
Your satellite tracking list
Your tracking list is empty




NASA's NSSDC Master Catalog

Two Line Element Set (TLE):
1 32353U 99025CYW 22184.81799910  .00001025  00000-0  78418-3 0  9991
2 32353  98.9291  24.1615 0147087  63.4458 298.1693 13.90573214456392
Source of the keplerian elements: AFSPC